Regional Weather Roundup
Issued by NWS

Home | Current Version | Previous Version | Text Only | Print | Product List | Glossary On
Versions: 1 2 3 4 5 6 7 8 9 10 11 12 13 14 15 16 17 18 19 20 21 22 23 24 25 26 27 28 29 30 31 32 33 34 35 36 37 38 39 40 41 42 43 44 45 46 47 48 49 50
000
ASUS44 KFWD 261103
RWRTX
NORTH TEXAS HOURLY WEATHER ROUNDUP
NATIONAL WEATHER SERVICE FORT WORTH TX
600 AM CDT TUE JUL 26 2016

NOTE: "FAIR" INDICATES FEW OR NO CLOUDS BELOW 12,000 FEET WITH NO
SIGNIFICANT WEATHER AND/OR OBSTRUCTIONS TO VISIBILITY.

TXZ118-119-261200-
DALLAS/FORT WORTH METROPLEX

CITY           SKY/WX    TMP DP  RH WIND       PRES   REMARKS
DFW AIRPORT    MOCLDY    77  71  82 CALM      29.95R
DALLAS LOVE    MOCLDY    79  71  76 E3        29.95S
FTW MEACHAM    PTCLDY    79  71  76 CALM      29.96R
DAL-EXECUTIVE  CLEAR     75  70  84 E3        29.95S
FTW-ALLIANCE   MOCLDY    75  70  84 CALM      29.95S
FTW-NAS-JRB    MOCLDY    78  70  76 E3        29.96S
FTW-SPINKS     CLEAR     73  71  93 CALM      29.97S
ARLINGTON      PTCLDY    74  71  91 CALM      29.95S
GRAND PRAIRIE  CLEAR     76  70  82 CALM      29.97S
ADDISON        CLEAR     79  72  78 CALM      29.97S
MESQUITE       PTCLDY    74  74 100 CALM      29.96R
LANCASTER      CLEAR     74  71  88 CALM      29.97R
$$

TXZ091>094-102>105-117-120-121-131>134-261200-
NORTH CENTRAL TEXAS

CITY           SKY/WX    TMP DP  RH WIND       PRES   REMARKS
SHRMAN/DENISON PTCLDY    74  74 100 CALM      29.98F
BOWIE          MOCLDY    74  71  92 CALM      29.99S
BRIDGEPORT     PTCLDY    73  73 100 CALM      29.99R
DECATUR        PTCLDY    73  71  95 E3        29.98S
DENTON         PTCLDY    75  71  87 CALM      29.96R
MCKINNEY       CLEAR     74  73  97 CALM      29.96S
GREENVILLE     MOCLDY    73  72  94 CALM      29.97S
ROCKWALL       CLEAR     74  74 100 E8        29.95S FOG
TERRELL        PTCLDY    74  72  93 N3        29.96S
WAXAHACHIE     CLEAR     72  72 100 CALM      29.97S
CLEBURNE       CLEAR     73  73 100 SE5       29.97S
GRANBURY       CLOUDY    73  69  86 CALM      29.97R
$$

TXZ083>090-098>101-113>116-127>130-139>142-154-155-261200-
WESTERN NORTH TEXAS

CITY           SKY/WX    TMP DP  RH WIND       PRES   REMARKS
WICHITA FALLS  CLOUDY    75  71  87 NE5       29.98R
WF-KICKAPOO    CLOUDY    77  70  80 NE3       29.99R
VERNON         CLOUDY    77  69  76 E5        29.99S
ABILENE        CLEAR     74  67  78 E3        29.99S
CISCO          CLEAR     70  68  94 CALM      30.00S
GRAHAM         MOCLDY    72  70  92 CALM      29.97R
MINERAL WELLS  MOCLDY    72  70  93 CALM      29.96R
STEPHENVILLE   CLOUDY    72  69  89 CALM      30.00R
COMANCHE       CLEAR     72  72 100 CALM      29.97F
COLEMAN        CLEAR     71  66  84 CALM      29.99F
$$

TXZ143>147-156>162-174-175-261200-
CENTRAL TEXAS

CITY           SKY/WX    TMP DP  RH WIND       PRES   REMARKS
WACO           CLOUDY    74  72  93 CALM      29.95S
WACO-MCGREGOR  CLOUDY    75  72  90 CALM      29.95F
HILLSBORO      CLEAR     71  70  97 CALM      29.96S
CORSICANA      CLEAR     76  72  87 SE3       29.96F
MEXIA          CLEAR     72  72  98 W7        29.95S FOG
HEARNE         CLEAR     73  73  97 CALM      29.94F
CAMERON        CLOUDY    75  74  98 E3        29.94S FOG
TEMPLE         CLOUDY    74  73  97 NE3       29.95F
KILLEEN        NOT AVBL
KILLEEN-SKYLRK CLOUDY    75  73  93 CALM      29.95F
FORT HOOD      CLOUDY    73  72  97 NE3       29.93S
HAMILTON       CLEAR     73  73 100 E3        29.98S
$$

TXZ095>097-106>112-122>126-135>138-148>153-164>167-261200-
EAST TEXAS

CITY           SKY/WX    TMP DP  RH WIND       PRES   REMARKS
PARIS          CLEAR     75  64  69 CALM      29.97F
SULPHUR SPRNGS PTCLDY    75  74  97 CALM      29.99S
MOUNT PLEASANT CLEAR     74  74 100 CALM      29.98R
GILMER         CLEAR     75  73  94 CALM      29.96S
MINEOLA        CLEAR     75  73  94 CALM      29.97S FOG
TYLER          CLEAR     75  72  90 CALM      29.96S
LONGVIEW       CLEAR     73  72  96 CALM      29.95S
MARSHALL       CLEAR     73  70  92 CALM      29.98S
ATHENS         CLOUDY    72  72 100 CALM      29.95S FOG
PALESTINE      CLOUDY    74  74 100 CALM      29.97F FOG
JACKSONVILLE   FOG       72  72 100 CALM      29.98F VSB 1/2
HENDERSON      CLEAR     72  72 100 CALM      29.97S
CENTER         FOG       75  73  95 CALM      29.97S VSB<1/4
NACOGDOCHES    CLEAR    N/A N/A N/A CALM      29.94S
LUFKIN         FOG       73  73 100 CALM      29.94S VSB 1/2
$$

SUPPLEMENTAL OBSERVATIONS (CENTRAL)

CITY           SKY/WX    TMP DP  RH WIND       PRES   REMARKS
$$

SUPPLEMENTAL OBSERVATIONS (WEST)

CITY           SKY/WX    TMP DP  RH WIND       PRES   REMARKS
$$

SUPPLEMENTAL OBSERVATIONS (EAST)

CITY           SKY/WX    TMP DP  RH WIND       PRES   REMARKS
$$

SUPPLEMENTAL OBSERVATIONS ARE A COLLECTION OF AUTOMATED INSTRUMENTS
THAT ARE MAINTAINED BY A VARIETY OF FEDERAL AND STATE AGENCIES.
CERTAIN ELEMENTS...SUCH AS HUMIDITY VALUES AND SUSTAINED WIND
SPEEDS...MAY BE APPROXIMATED.





USA.gov is the U.S. government's official web portal to all federal, state and local government web resources and services.